Vertical_Velocity
-3 -1 -1 -4 -0 -2 -3 -5 -10 11 9 -2 -10 -8 4 1 -2 2 -1 -1 -2 0 1 -2 -2 -2 -2 1 2 -0 -1 -0 -1 -2 -2 -1 2 -1
-3 -0 -4 -3 -2 -2 -2 -2 -4 -12 11 -18 -0 -10 -9 0 -2 3 -1 1 -0 -1 -1 2 1 -2 -1 -1 -0 0 1 1 1 -1 -4 -3 0 -1
-5 1 -3 -1 1 -2 -3 -1 -1 -10 -5 24 -1 1 -6 -4 -4 3 -2 -3 2 3 1 -1 0 3 -1 -1 1 -1 1 0 0 1 -0 -3 -2 -1
-3 -2 -1 -2 0 -3 -3 1 -3 -6 -9 8 1 -5 5 -11 -2 5 -1 -0 -3 -0 -1 -2 -1 -1 2 2 0 0 1 2 1 1 1 -2 -1 -1
-0 0 1 -3 3 -2 -3 3 -4 -3 -7 -8 14 1 0 -1 -7 -4 1 -1 3 -3 -3 -1 -2 -4 0 1 -1 1 -0 -1 2 2 3 3 -2 -3
-2 -2 1 -0 2 1 -2 -3 -4 -1 -4 -5 1 7 0 -9 0 -6 0 6 2 1 -2 -2 -2 -2 -2 -1 -3 -2 -1 0 -0 1 1 2 4 2
-1 -2 -1 -1 -3 -0 -0 4 -4 -3 -3 -5 1 -0 12 -2 -8 -2 7 -7 5 1 -0 0 -1 -0 -4 -1 -1 -5 -2 -0 -1 2 1 0 2 5
2 1 -4 -1 -5 -0 -3 0 3 -3 -1 -2 -2 1 8 3 -2 1 5 0 12 -4 1 2 2 0 1 -2 -2 -2 -3 -4 -2 2 1 3 3 3
-2 -4 3 0 -4 -1 -1 0 1 0 3 -2 -4 3 3 1 1 1 -0 9 6 0 -3 6 3 2 -1 3 1 -0 -1 -0 -3 -2 -4 -1 1 1
-3 -4 -2 2 -4 -1 2 1 -1 1 -4 1 3 7 -2 2 -1 1 5 -0 2 4 -1 12 -5 3 -1 1 1 1 1 -1 -2 -1 -5 -2 -2 -2
-4 -5 -7 -4 -1 -1 -4 -3 0 3 -8 -2 -2 2 5 0 -4 -1 3 -2 3 3 -0 6 1 -6 1 -0 2 0 0 -1 -0 1 1 -0 -2 -6
2 -0 0 -3 7 7 5 0 5 8 -0 -0 2 5 2 5 -0 4 -0 4 0 1 6 -2 3 0 -1 1 2 -4 -4 -1 1 2 1 -2 0 4
5 9 6 5 7 9 7 7 4 10 7 2 6 1 3 3 0 4 5 2 4 1 8 -7 8 4 -1 -2 -2 2 2 -1 -1 0 1 2 2 2
8 6 4 8 4 2 0 1 -1 -2 4 2 3 4 -1 0 1 2 2 5 1 4 1 3 3 3 -1 1 3 2 -2 1 2 -0 1 1 0 0
1 1 3 6 4 0 -0 0 -1 -2 -1 1 3 6 -1 -1 1 1 2 1 3 2 1 2 0 2 2 1 3 1 1 6 -2 -3 -1 -1 2 3
-6 2 2 1 5 4 2 2 1 1 -2 -0 4 3 2 1 2 -1 1 -0 4 0 1 -1 -0 -0 3 2 2 3 -1 -5 -3 1 -0 2 -0 -2
-5 1 2 -0 1 2 2 4 8 1 -2 -2 2 2 3 1 2 -1 2 3 1 2 -0 1 0 0 1 4 8 0 -5 -1 -4 1 3 2 -1 -6
1 2 3 1 2 2 3 4 2 4 -1 -2 -1 3 2 0 2 1 1 -1 1 2 0 -1 1 -0 3 3 2 -6 -1 0 -1 3 3 0 -4 1
-2 3 2 2 2 0 2 2 4 1 -1 0 -1 -1 2 2 1 2 1 -0 2 0 -0 0 2 2 4 4 -4 1 2 1 -3 -2 1 4 -2 -4
-2 2 2 1 1 1 2 3 2 3 1 1 1 2 0 3 1 3 2 1 2 1 0 1 2 -1 2 2 7 -1 -4 1 7 4 -1 -1 2 -1
1 0 0 1 1 -1 -1 1 -0 1 1 1 -0 2 2 -1 2 2 1 1 1 2 4 2 -4 3 3 3 1 -4 3 6 1 0 2 2 -0 -4
-2 -1 -0 -0 -0 2 2 1 0 -0 -1 -3 1 2 0 -1 2 1 0 1 1 3 3 -1 -2 4 2 3 0 1 5 -0 2 2 -3 -0 -4 -2
1 -1 -0 -1 1 2 -1 -1 -2 0 -0 -3 -1 3 2 2 1 -0 1 1 1 2 2 -0 -1 2 1 2 3 2 1 1 -1 0 -1 -2 1 2
Height
5722 5720 5717 5714 5713 5711 5708 5706 5706 5705 5700 5696 5694 5692 5691 5689 5688 5687 5685 5683 5682 5682 5682 5682 5682 5682 5682 5683 5683 5683 5683 5683 5683 5683 5682 5682 5682 5681
5709 5707 5704 5701 5699 5697 5695 5692 5691 5691 5692 5687 5683 5682 5681 5679 5677 5677 5676 5675 5673 5671 5671 5671 5671 5671 5672 5672 5673 5674 5674 5674 5675 5675 5675 5675 5675 5675
5694 5692 5689 5687 5684 5682 5680 5678 5676 5675 5676 5674 5672 5667 5667 5668 5667 5665 5664 5663 5662 5662 5661 5659 5659 5660 5660 5660 5661 5663 5664 5665 5665 5666 5666 5667 5668 5668
5677 5675 5671 5670 5667 5665 5663 5661 5660 5658 5659 5660 5656 5655 5652 5651 5652 5653 5651 5650 5650 5649 5649 5649 5648 5648 5648 5648 5649 5650 5652 5653 5655 5657 5657 5658 5658 5660
5658 5655 5652 5650 5648 5645 5644 5643 5641 5640 5639 5641 5641 5639 5637 5634 5635 5636 5636 5636 5636 5635 5635 5635 5635 5636 5636 5636 5637 5637 5638 5640 5643 5645 5647 5648 5649 5650
5637 5634 5632 5629 5627 5624 5622 5620 5620 5620 5619 5619 5621 5621 5620 5618 5617 5618 5619 5618 5619 5620 5620 5620 5621 5622 5624 5625 5626 5626 5627 5627 5629 5632 5635 5637 5638 5639
5612 5609 5607 5605 5603 5602 5601 5597 5595 5596 5596 5596 5598 5598 5598 5597 5598 5598 5600 5601 5602 5602 5602 5603 5605 5606 5609 5611 5613 5614 5615 5616 5618 5619 5621 5624 5627 5629
5587 5582 5580 5578 5576 5575 5574 5574 5572 5571 5571 5571 5573 5574 5573 5574 5576 5578 5579 5581 5584 5585 5587 5587 5589 5590 5592 5595 5598 5600 5603 5605 5606 5608 5610 5612 5615 5618
5560 5556 5553 5549 5548 5547 5546 5545 5544 5543 5544 5545 5548 5548 5549 5548 5552 5555 5558 5559 5561 5565 5567 5570 5572 5573 5577 5579 5581 5585 5588 5591 5594 5596 5599 5601 5603 5605
5530 5527 5527 5525 5519 5519 5520 5518 5518 5517 5517 5520 5522 5523 5524 5525 5527 5530 5533 5537 5540 5543 5548 5553 5553 5555 5560 5562 5565 5568 5571 5575 5578 5582 5585 5587 5590 5592
5500 5497 5496 5496 5493 5491 5492 5493 5492 5490 5490 5493 5496 5498 5498 5500 5503 5507 5510 5514 5518 5521 5526 5532 5533 5537 5540 5545 5548 5551 5554 5557 5561 5564 5567 5571 5575 5577
5471 5468 5464 5464 5465 5463 5462 5463 5466 5463 5463 5465 5469 5471 5473 5474 5477 5482 5485 5490 5494 5500 5503 5509 5512 5516 5521 5523 5529 5532 5536 5539 5543 5546 5550 5553 5556 5559
5441 5440 5437 5433 5433 5434 5432 5433 5435 5436 5436 5439 5442 5444 5446 5450 5453 5457 5461 5466 5470 5475 5480 5484 5490 5495 5499 5504 5507 5512 5517 5521 5524 5528 5531 5535 5538 5542
5413 5412 5411 5409 5407 5409 5409 5410 5411 5413 5415 5417 5420 5422 5424 5428 5432 5436 5440 5444 5449 5455 5458 5464 5470 5473 5478 5484 5489 5492 5496 5502 5506 5510 5514 5518 5521 5524
5389 5389 5389 5389 5388 5388 5389 5391 5392 5392 5395 5398 5400 5402 5405 5410 5413 5418 5422 5426 5431 5435 5440 5445 5450 5456 5460 5465 5470 5474 5479 5482 5487 5492 5496 5500 5503 5506
5367 5368 5367 5367 5368 5369 5370 5373 5374 5374 5376 5379 5382 5385 5388 5392 5396 5400 5405 5409 5414 5418 5422 5428 5432 5438 5444 5449 5453 5456 5460 5466 5471 5476 5481 5484 5487 5489
5348 5349 5348 5347 5349 5350 5352 5355 5356 5357 5358 5361 5365 5368 5371 5375 5379 5384 5388 5392 5398 5402 5406 5411 5416 5422 5427 5432 5437 5439 5444 5450 5455 5460 5465 5468 5469 5473
5333 5333 5331 5330 5331 5332 5334 5337 5339 5340 5341 5343 5347 5351 5355 5359 5363 5368 5372 5378 5383 5387 5391 5396 5401 5406 5411 5417 5421 5424 5430 5434 5440 5445 5449 5452 5454 5459
5318 5318 5317 5316 5316 5315 5316 5318 5321 5322 5324 5326 5329 5332 5338 5343 5348 5353 5358 5363 5368 5373 5378 5382 5387 5392 5397 5401 5406 5411 5416 5421 5425 5430 5435 5438 5441 5445
5306 5306 5305 5304 5304 5304 5304 5304 5304 5305 5306 5308 5311 5314 5319 5326 5332 5338 5344 5349 5355 5360 5365 5369 5374 5379 5385 5389 5394 5397 5402 5408 5412 5416 5422 5425 5428 5432
5298 5297 5296 5295 5294 5293 5293 5292 5291 5291 5291 5292 5295 5298 5302 5308 5316 5322 5330 5336 5342 5348 5352 5357 5362 5368 5372 5377 5382 5386 5392 5396 5400 5406 5410 5413 5416 5419
5289 5288 5286 5285 5284 5282 5281 5279 5279 5278 5278 5277 5279 5282 5286 5292 5299 5307 5315 5322 5329 5336 5341 5346 5352 5357 5361 5366 5371 5376 5381 5386 5391 5395 5398 5402 5405 5406
5280 5278 5276 5274 5272 5270 5268 5266 5265 5264 5263 5263 5264 5267 5271 5276 5283 5292 5301 5309 5316 5323 5330 5336 5341 5346 5351 5356 5362 5367 5372 5377 5381 5385 5388 5390 5393 5396